Time,TemperatureF,DewpointF,PressureIn,WindDirection,WindDirectionDegrees,WindSpeedMPH,WindSpeedGustMPH,Humidity,HourlyPrecipIn,Conditions,Clouds,dailyrainin,SoftwareType,DateUTC
2013-03-15 00:10:00,36.4,24.0,30.19,North,360,0.0,0.0,60,0.00,,,0.00,weatherlink.com 1.10,2013-03-15 04:10:00,
2013-03-15 00:25:00,36.3,22.0,30.20,North,355,0.0,0.0,56,0.00,,,0.00,weatherlink.com 1.10,2013-03-15 04:25:00,
2013-03-15 00:40:00,36.4,21.0,30.20,North,355,0.0,0.0,55,0.00,,,0.00,weatherlink.com 1.10,2013-03-15 04:40:00,
2013-03-15 00:55:00,36.2,20.0,30.20,North,360,0.0,0.0,53,0.00,,,0.00,weatherlink.com 1.10,2013-03-15 04:55:00,
2013-03-15 01:10:00,36.1,23.0,30.20,North,360,0.0,0.0,59,0.00,,,0.00,weatherlink.com 1.10,2013-03-15 05:10:00,
2013-03-15 01:25:00,35.6,23.0,30.20,North,355,0.0,0.0,61,0.00,,,0.00,weatherlink.com 1.10,2013-03-15 05:25:00,
2013-03-15 01:40:00,35.4,22.0,30.20,North,355,0.0,0.0,59,0.00,,,0.00,weatherlink.com 1.10,2013-03-15 05:40:00,
2013-03-15 01:55:00,35.2,24.0,30.20,North,355,0.0,0.0,64,0.00,,,0.00,weatherlink.com 1.10,2013-03-15 05:55:00,
2013-03-15 02:10:00,34.8,24.0,30.20,North,355,0.0,0.0,64,0.00,,,0.00,weatherlink.com 1.10,2013-03-15 06:10:00,
2013-03-15 02:25:00,34.5,23.0,30.20,North,355,0.0,1.0,63,0.00,,,0.00,weatherlink.com 1.10,2013-03-15 06:25:00,
2013-03-15 02:40:00,34.5,23.0,30.20,North,355,0.0,0.0,62,0.00,,,0.00,weatherlink.com 1.10,2013-03-15 06:40:00,
2013-03-15 02:55:00,34.4,22.0,30.20,North,355,0.0,0.0,62,0.00,,,0.00,weatherlink.com 1.10,2013-03-15 06:55:00,
2013-03-15 03:10:00,34.2,23.0,30.20,North,360,0.0,0.0,63,0.00,,,0.00,weatherlink.com 1.10,2013-03-15 07:10:00,
2013-03-15 03:25:00,34.0,23.0,30.19,North,360,0.0,0.0,64,0.00,,,0.00,weatherlink.com 1.10,2013-03-15 07:25:00,
2013-03-15 03:40:00,33.7,21.0,30.18,North,355,0.0,0.0,61,0.00,,,0.00,weatherlink.com 1.10,2013-03-15 07:40:00,
2013-03-15 03:55:00,33.4,21.0,30.18,North,355,0.0,0.0,60,0.00,,,0.00,weatherlink.com 1.10,2013-03-15 07:55:00,
2013-03-15 04:10:00,33.1,22.0,30.17,North,355,0.0,0.0,63,0.00,,,0.00,weatherlink.com 1.10,2013-03-15 08:10:00,
2013-03-15 04:25:00,32.8,21.0,30.17,North,355,0.0,0.0,62,0.00,,,0.00,weatherlink.com 1.10,2013-03-15 08:25:00,
2013-03-15 04:40:00,32.5,21.0,30.17,North,355,0.0,0.0,63,0.00,,,0.00,weatherlink.com 1.10,2013-03-15 08:40:00,
2013-03-15 04:55:00,32.2,22.0,30.18,North,355,0.0,0.0,66,0.00,,,0.00,weatherlink.com 1.10,2013-03-15 08:55:00,
2013-03-15 05:10:00,31.9,22.0,30.18,North,355,0.0,0.0,68,0.00,,,0.00,weatherlink.com 1.10,2013-03-15 09:10:00,
2013-03-15 05:25:00,31.6,22.0,30.18,North,355,0.0,0.0,69,0.00,,,0.00,weatherlink.com 1.10,2013-03-15 09:25:00,
2013-03-15 05:44:00,31.3,23.0,30.19,North,355,0.0,0.0,70,0.00,,,0.00,weatherlink.com 1.10,2013-03-15 09:44:00,
2013-03-15 05:55:00,31.1,23.0,30.19,North,360,0.0,0.0,73,0.00,,,0.00,weatherlink.com 1.10,2013-03-15 09:55:00,
2013-03-15 06:10:00,30.8,23.0,30.20,North,355,0.0,0.0,74,0.00,,,0.00,weatherlink.com 1.10,2013-03-15 10:10:00,
2013-03-15 06:25:00,30.6,23.0,30.20,North,355,0.0,0.0,73,0.00,,,0.00,weatherlink.com 1.10,2013-03-15 10:25:00,
2013-03-15 06:40:00,30.5,22.0,30.19,North,355,0.0,0.0,71,0.00,,,0.00,weatherlink.com 1.10,2013-03-15 10:40:00,
2013-03-15 06:56:00,30.3,23.0,30.19,North,355,0.0,0.0,74,0.00,,,0.00,weatherlink.com 1.10,2013-03-15 10:56:00,
2013-03-15 07:11:00,30.2,23.0,30.19,North,355,0.0,0.0,73,0.00,,,0.00,weatherlink.com 1.10,2013-03-15 11:11:00,
2013-03-15 07:26:00,30.1,22.0,30.19,North,355,0.0,0.0,73,0.00,,,0.00,weatherlink.com 1.10,2013-03-15 11:26:00,
2013-03-15 07:41:00,30.2,23.0,30.20,North,355,0.0,0.0,75,0.00,,,0.00,weatherlink.com 1.10,2013-03-15 11:41:00,
2013-03-15 07:56:00,30.2,23.0,30.20,North,355,0.0,0.0,75,0.00,,,0.00,weatherlink.com 1.10,2013-03-15 11:56:00,
2013-03-15 08:11:00,30.2,23.0,30.19,North,355,0.0,0.0,73,0.00,,,0.00,weatherlink.com 1.10,2013-03-15 12:11:00,
2013-03-15 08:26:00,30.8,23.0,30.19,North,360,0.0,0.0,72,0.00,,,0.00,weatherlink.com 1.10,2013-03-15 12:26:00,
2013-03-15 08:41:00,31.7,24.0,30.21,North,355,0.0,0.0,72,0.00,,,0.00,weatherlink.com 1.10,2013-03-15 12:41:00,
2013-03-15 08:56:00,32.9,23.0,30.21,North,355,0.0,0.0,68,0.00,,,0.00,weatherlink.com 1.10,2013-03-15 12:56:00,
2013-03-15 09:11:00,35.1,23.0,30.20,North,355,0.0,2.0,61,0.00,,,0.00,weatherlink.com 1.10,2013-03-15 13:11:00,
2013-03-15 10:11:00,43.1,23.0,30.20,SW,221,0.0,4.0,46,0.00,,,0.00,weatherlink.com 1.10,2013-03-15 14:11:00,
2013-03-15 10:26:00,44.4,23.0,30.19,West,262,1.0,2.0,43,0.00,,,0.00,weatherlink.com 1.10,2013-03-15 14:26:00,
2013-03-15 10:41:00,45.9,23.0,30.18,SE,131,3.0,6.0,40,0.00,,,0.00,weatherlink.com 1.10,2013-03-15 14:41:00,
2013-03-15 10:56:00,47.3,22.0,30.18,WSW,246,1.0,5.0,37,0.00,,,0.00,weatherlink.com 1.10,2013-03-15 14:56:00,
2013-03-15 11:11:00,48.6,23.0,30.17,SSE,147,1.0,4.0,36,0.00,,,0.00,weatherlink.com 1.10,2013-03-15 15:11:00,
2013-03-15 11:26:00,49.9,23.0,30.17,South,181,0.0,8.0,35,0.00,,,0.00,weatherlink.com 1.10,2013-03-15 15:26:00,
2013-03-15 11:41:00,51.4,25.0,30.16,SW,217,0.0,5.0,36,0.00,,,0.00,weatherlink.com 1.10,2013-03-15 15:41:00,
2013-03-15 11:56:00,52.9,24.0,30.15,SW,221,3.0,7.0,33,0.00,,,0.00,weatherlink.com 1.10,2013-03-15 15:56:00,
2013-03-15 12:11:00,54.2,27.0,30.13,SE,142,3.0,8.0,35,0.00,,,0.00,weatherlink.com 1.10,2013-03-15 16:11:00,
2013-03-15 12:26:00,55.0,27.0,30.12,SSE,168,0.0,7.0,34,0.00,,,0.00,weatherlink.com 1.10,2013-03-15 16:26:00,
2013-03-15 12:42:00,56.4,28.0,30.12,SW,227,4.0,8.0,34,0.00,,,0.00,weatherlink.com 1.10,2013-03-15 16:42:00,
2013-03-15 12:57:00,57.5,28.0,30.11,SSW,202,4.0,6.0,33,0.00,,,0.00,weatherlink.com 1.10,2013-03-15 16:57:00,
2013-03-15 13:12:00,57.2,29.0,30.11,SW,236,3.0,8.0,34,0.00,,,0.00,weatherlink.com 1.10,2013-03-15 17:12:00,
2013-03-15 13:27:00,58.0,30.0,30.09,SE,141,4.0,11.0,34,0.00,,,0.00,weatherlink.com 1.10,2013-03-15 17:27:00,
2013-03-15 13:42:00,59.5,29.0,30.09,NW,307,1.0,6.0,31,0.00,,,0.00,weatherlink.com 1.10,2013-03-15 17:42:00,
2013-03-15 13:57:00,60.4,31.0,30.07,WSW,251,0.0,9.0,33,0.00,,,0.00,weatherlink.com 1.10,2013-03-15 17:57:00,
2013-03-15 14:12:00,61.2,32.0,30.06,SSW,196,3.0,6.0,33,0.00,,,0.00,weatherlink.com 1.10,2013-03-15 18:12:00,
2013-03-15 14:27:00,61.8,31.0,30.05,South,188,2.0,4.0,32,0.00,,,0.00,weatherlink.com 1.10,2013-03-15 18:27:00,
2013-03-15 14:42:00,61.7,31.0,30.04,SW,217,2.0,7.0,31,0.00,,,0.00,weatherlink.com 1.10,2013-03-15 18:42:00,
2013-03-15 14:57:00,62.1,32.0,30.02,NW,322,2.0,4.0,32,0.00,,,0.00,weatherlink.com 1.10,2013-03-15 18:57:00,
2013-03-15 15:12:00,62.4,32.0,30.01,SW,228,2.0,6.0,32,0.00,,,0.00,weatherlink.com 1.10,2013-03-15 19:12:00,
2013-03-15 15:27:00,63.3,33.0,29.99,South,175,1.0,5.0,32,0.00,,,0.00,weatherlink.com 1.10,2013-03-15 19:27:00,
2013-03-15 15:57:00,64.0,33.0,29.98,SSW,200,0.0,10.0,31,0.00,,,0.00,weatherlink.com 1.10,2013-03-15 19:57:00,
2013-03-15 16:12:00,63.7,32.0,29.98,SW,233,3.0,7.0,31,0.00,,,0.00,weatherlink.com 1.10,2013-03-15 20:12:00,
2013-03-15 16:27:00,62.9,32.0,29.98,SW,215,3.0,11.0,32,0.00,,,0.00,weatherlink.com 1.10,2013-03-15 20:27:00,
2013-03-15 16:42:00,62.1,32.0,29.97,WNW,287,2.0,5.0,32,0.00,,,0.00,weatherlink.com 1.10,2013-03-15 20:42:00,
2013-03-15 16:57:00,62.0,33.0,29.96,SW,235,1.0,5.0,34,0.00,,,0.00,weatherlink.com 1.10,2013-03-15 20:57:00,
2013-03-15 17:12:00,61.9,34.0,29.96,South,174,1.0,4.0,35,0.00,,,0.00,weatherlink.com 1.10,2013-03-15 21:12:00,
2013-03-15 17:27:00,62.0,33.0,29.95,West,265,3.0,5.0,34,0.00,,,0.00,weatherlink.com 1.10,2013-03-15 21:27:00,
2013-03-15 17:42:00,61.4,33.0,29.96,South,183,1.0,5.0,35,0.00,,,0.00,weatherlink.com 1.10,2013-03-15 21:42:00,
2013-03-15 17:57:00,60.8,33.0,29.95,SSW,211,0.0,6.0,35,0.00,,,0.00,weatherlink.com 1.10,2013-03-15 21:57:00,
2013-03-15 18:12:00,60.4,33.0,29.96,SW,221,4.0,8.0,36,0.00,,,0.00,weatherlink.com 1.10,2013-03-15 22:12:00,
2013-03-15 18:27:00,60.2,34.0,29.95,WSW,242,0.0,5.0,37,0.00,,,0.00,weatherlink.com 1.10,2013-03-15 22:27:00,
2013-03-15 18:42:00,60.0,34.0,29.95,SE,132,0.0,5.0,38,0.00,,,0.00,weatherlink.com 1.10,2013-03-15 22:42:00,
2013-03-15 18:57:00,59.6,34.0,29.94,South,173,0.0,4.0,39,0.00,,,0.00,weatherlink.com 1.10,2013-03-15 22:57:00,
2013-03-15 19:12:00,59.0,34.0,29.94,SE,142,0.0,5.0,39,0.00,,,0.00,weatherlink.com 1.10,2013-03-15 23:12:00,
2013-03-15 19:27:00,58.4,35.0,29.95,SE,140,0.0,3.0,41,0.00,,,0.00,weatherlink.com 1.10,2013-03-15 23:27:00,
2013-03-15 19:57:00,56.8,35.0,29.95,ESE,122,0.0,2.0,44,0.00,,,0.00,weatherlink.com 1.10,2013-03-15 23:57:00,
2013-03-15 20:12:00,56.3,34.0,29.95,ESE,122,0.0,0.0,44,0.00,,,0.00,weatherlink.com 1.10,2013-03-16 00:12:00,
2013-03-15 20:27:00,55.6,35.0,29.95,ESE,121,0.0,1.0,46,0.00,,,0.00,weatherlink.com 1.10,2013-03-16 00:27:00,
2013-03-15 20:42:00,54.8,35.0,29.94,ESE,122,0.0,2.0,47,0.00,,,0.00,weatherlink.com 1.10,2013-03-16 00:42:00,
2013-03-15 20:57:00,54.3,35.0,29.94,ESE,122,0.0,1.0,49,0.00,,,0.00,weatherlink.com 1.10,2013-03-16 00:57:00,
2013-03-15 21:13:00,54.2,35.0,29.94,ESE,122,0.0,1.0,48,0.00,,,0.00,weatherlink.com 1.10,2013-03-16 01:13:00,
2013-03-15 21:27:00,54.1,35.0,29.94,ESE,122,1.0,2.0,48,0.00,,,0.00,weatherlink.com 1.10,2013-03-16 01:27:00,
2013-03-15 21:44:00,54.3,35.0,29.94,South,174,1.0,3.0,48,0.00,,,0.00,weatherlink.com 1.10,2013-03-16 01:44:00,
2013-03-15 21:58:00,54.5,34.0,29.94,SSE,161,2.0,4.0,47,0.00,,,0.00,weatherlink.com 1.10,2013-03-16 01:58:00,
2013-03-15 22:13:00,54.5,34.0,29.94,SSE,165,0.0,3.0,47,0.00,,,0.00,weatherlink.com 1.10,2013-03-16 02:13:00,
2013-03-15 22:28:00,54.5,34.0,29.94,SSE,148,0.0,4.0,47,0.00,,,0.00,weatherlink.com 1.10,2013-03-16 02:28:00,
2013-03-15 22:43:00,55.1,34.0,29.94,SSE,155,1.0,10.0,46,0.00,,,0.00,weatherlink.com 1.10,2013-03-16 02:43:00,
2013-03-15 22:58:00,55.7,35.0,29.93,South,175,0.0,4.0,46,0.00,,,0.00,weatherlink.com 1.10,2013-03-16 02:58:00,
2013-03-15 23:13:00,55.6,34.0,29.93,SSE,167,0.0,4.0,45,0.00,,,0.00,weatherlink.com 1.10,2013-03-16 03:13:00,
2013-03-15 23:28:00,55.7,34.0,29.93,SSW,204,1.0,7.0,45,0.00,,,0.00,weatherlink.com 1.10,2013-03-16 03:28:00,
2013-03-15 23:43:00,55.4,35.0,29.92,SSW,206,1.0,9.0,46,0.00,,,0.00,weatherlink.com 1.10,2013-03-16 03:43:00,
2013-03-15 23:58:00,55.4,35.0,29.92,South,186,1.0,6.0,46,0.00,,,0.00,weatherlink.com 1.10,2013-03-16 03:58:00,